contact:dominique.lefevre@mio.osupytheas.fr, maurice.libes@osupytheas.fr, didier.mallarino@osupytheas.fr
Project:EMSO http://www.emso-fr.org/EMSO-France
Depth: 2436.0 m
Title:EMSO Ligure Ouest : Data MII capteur MICROCAT
DateTime_Computer,Latitude,Longitude,Temperature,Conductivity,Pressure,DateTime_Instrument
DateTime_Computer,Latitude,Longitude,degC,S m-1,dbar,DateTime_Instrument
2020-10-27T00:02:18Z,42.805,6.029,13.3007,4.60004,2470.124,2020-10-27T02:03:13Z
2020-10-27T00:05:21Z,42.805,6.029,13.3011,4.60019,2470.124,2020-10-27T02:06:16Z
2020-10-27T00:08:24Z,42.805,6.029,13.3009,4.60019,2470.087,2020-10-27T02:09:19Z
2020-10-27T00:11:27Z,42.805,6.029,13.3002,4.60008,2470.1,2020-10-27T02:12:22Z
2020-10-27T00:14:30Z,42.805,6.029,13.3014,4.60034,2470.087,2020-10-27T02:15:25Z
2020-10-27T00:17:33Z,42.805,6.029,13.3014,4.60005,2470.133,2020-10-27T02:18:28Z
2020-10-27T00:20:36Z,42.805,6.029,13.3033,4.59991,2470.1,2020-10-27T02:21:31Z
2020-10-27T00:23:40Z,42.805,6.029,13.3009,4.60011,2470.11,2020-10-27T02:24:34Z
2020-10-27T00:26:43Z,42.805,6.029,13.3014,4.60008,2470.087,2020-10-27T02:27:38Z
2020-10-27T00:29:46Z,42.805,6.029,13.3015,4.60020,2470.1,2020-10-27T02:30:41Z
2020-10-27T00:32:49Z,42.805,6.029,13.3011,4.60011,2470.124,2020-10-27T02:33:44Z
2020-10-27T00:35:52Z,42.805,6.029,13.3004,4.60009,2470.1,2020-10-27T02:36:47Z
2020-10-27T00:38:55Z,42.805,6.029,13.3010,4.60014,2470.087,2020-10-27T02:39:50Z
2020-10-27T00:41:58Z,42.805,6.029,13.3007,4.60051,2470.063,2020-10-27T02:42:53Z
2020-10-27T00:45:01Z,42.805,6.029,13.3024,4.60020,2470.087,2020-10-27T02:45:56Z
2020-10-27T00:48:04Z,42.805,6.029,13.3010,4.60005,2470.11,2020-10-27T02:48:59Z
2020-10-27T00:51:08Z,42.805,6.029,13.3014,4.60021,2470.077,2020-10-27T02:52:03Z
2020-10-27T00:54:11Z,42.805,6.029,13.3037,4.60016,2470.124,2020-10-27T02:55:06Z
2020-10-27T00:57:14Z,42.805,6.029,13.3026,4.60006,2470.1,2020-10-27T02:58:09Z
2020-10-27T01:00:17Z,42.805,6.029,13.3055,4.60046,2470.087,2020-10-27T03:01:12Z
2020-10-27T01:03:20Z,42.805,6.029,13.3029,4.60003,2470.087,2020-10-27T03:04:15Z
2020-10-27T01:06:23Z,42.805,6.029,13.3019,4.60020,2470.1,2020-10-27T03:07:18Z
2020-10-27T01:09:26Z,42.805,6.029,13.3049,4.60030,2470.049,2020-10-27T03:10:21Z
2020-10-27T01:12:29Z,42.805,6.029,13.3046,4.60042,2470.1,2020-10-27T03:13:24Z
2020-10-27T01:15:33Z,42.805,6.029,13.3034,4.60072,2470.1,2020-10-27T03:16:28Z
2020-10-27T01:18:36Z,42.805,6.029,13.3016,4.60023,2470.1,2020-10-27T03:19:31Z
2020-10-27T01:21:39Z,42.805,6.029,13.3039,4.60002,2470.11,2020-10-27T03:22:34Z
2020-10-27T01:24:42Z,42.805,6.029,13.3028,4.60026,2470.087,2020-10-27T03:25:37Z
2020-10-27T01:27:45Z,42.805,6.029,13.3008,4.60019,2470.063,2020-10-27T03:28:40Z
2020-10-27T01:30:48Z,42.805,6.029,13.3015,4.60126,2470.124,2020-10-27T03:31:43Z
2020-10-27T01:33:51Z,42.805,6.029,13.3051,4.60055,2470.087,2020-10-27T03:34:46Z
2020-10-27T01:36:54Z,42.805,6.029,13.3015,4.60045,2470.1,2020-10-27T03:37:49Z
2020-10-27T01:39:58Z,42.805,6.029,13.3021,4.60046,2470.124,2020-10-27T03:40:53Z
2020-10-27T01:43:01Z,42.805,6.029,13.3065,4.60021,2470.11,2020-10-27T03:43:56Z
2020-10-27T01:46:04Z,42.805,6.029,13.3026,4.60024,2470.124,2020-10-27T03:46:59Z
2020-10-27T01:49:07Z,42.805,6.029,13.3029,4.60056,2470.11,2020-10-27T03:50:02Z
2020-10-27T01:52:10Z,42.805,6.029,13.3056,4.60052,2470.1,2020-10-27T03:53:05Z
2020-10-27T01:55:13Z,42.805,6.029,13.3040,4.60064,2470.124,2020-10-27T03:56:08Z
2020-10-27T01:58:16Z,42.805,6.029,13.3043,4.60057,2470.11,2020-10-27T03:59:11Z
2020-10-27T02:01:19Z,42.805,6.029,13.3046,4.60041,2470.11,2020-10-27T04:02:14Z
2020-10-27T02:04:23Z,42.805,6.029,13.3062,4.60023,2470.087,2020-10-27T04:05:18Z
2020-10-27T02:07:26Z,42.805,6.029,13.3056,4.60056,2470.133,2020-10-27T04:08:21Z
2020-10-27T02:10:29Z,42.805,6.029,13.3063,4.60057,2470.133,2020-10-27T04:11:24Z
2020-10-27T02:13:32Z,42.805,6.029,13.3046,4.60043,2470.147,2020-10-27T04:14:27Z
2020-10-27T02:16:35Z,42.805,6.029,13.3050,4.60041,2470.11,2020-10-27T04:17:30Z
2020-10-27T02:19:38Z,42.805,6.029,13.3013,4.60048,2470.124,2020-10-27T04:20:33Z
2020-10-27T02:22:41Z,42.805,6.029,13.2991,4.60049,2470.133,2020-10-27T04:23:36Z
2020-10-27T02:25:44Z,42.805,6.029,13.3020,4.60046,2470.156,2020-10-27T04:26:39Z
2020-10-27T02:28:48Z,42.805,6.029,13.3017,4.60054,2470.124,2020-10-27T04:29:43Z
2020-10-27T02:31:51Z,42.805,6.029,13.3027,4.60044,2470.133,2020-10-27T04:32:46Z
2020-10-27T02:34:54Z,42.805,6.029,13.3036,4.60043,2470.124,2020-10-27T04:35:49Z
2020-10-27T02:37:57Z,42.805,6.029,13.3017,4.60042,2470.124,2020-10-27T04:38:52Z
2020-10-27T02:41:00Z,42.805,6.029,13.3004,4.60078,2470.133,2020-10-27T04:41:55Z
2020-10-27T02:44:03Z,42.805,6.029,13.3019,4.60075,2470.147,2020-10-27T04:44:58Z
2020-10-27T02:47:06Z,42.805,6.029,13.3011,4.60082,2470.171,2020-10-27T04:48:01Z
2020-10-27T02:50:09Z,42.805,6.029,13.3002,4.60049,2470.147,2020-10-27T04:51:04Z
2020-10-27T02:53:12Z,42.805,6.029,13.2996,4.60078,2470.147,2020-10-27T04:54:07Z
2020-10-27T02:56:16Z,42.805,6.029,13.2997,4.60048,2470.171,2020-10-27T04:57:11Z
2020-10-27T02:59:19Z,42.805,6.029,13.2999,4.60057,2470.171,2020-10-27T05:00:14Z
2020-10-27T03:02:22Z,42.805,6.029,13.2998,4.60048,2470.133,2020-10-27T05:03:17Z
2020-10-27T03:05:25Z,42.805,6.029,13.2993,4.60057,2470.147,2020-10-27T05:06:20Z
2020-10-27T03:08:28Z,42.805,6.029,13.3001,4.60044,2470.147,2020-10-27T05:09:23Z
2020-10-27T03:11:31Z,42.805,6.029,13.3010,4.60058,2470.171,2020-10-27T05:12:26Z
2020-10-27T03:14:34Z,42.805,6.029,13.3004,4.60055,2470.133,2020-10-27T05:15:29Z
2020-10-27T03:17:37Z,42.805,6.029,13.3002,4.60041,2470.18,2020-10-27T05:18:32Z
2020-10-27T03:20:41Z,42.805,6.029,13.3004,4.60025,2470.156,2020-10-27T05:21:36Z
2020-10-27T03:23:44Z,42.805,6.029,13.2996,4.60052,2470.147,2020-10-27T05:24:39Z
2020-10-27T03:26:47Z,42.805,6.029,13.2998,4.60059,2470.147,2020-10-27T05:27:42Z
2020-10-27T03:29:50Z,42.805,6.029,13.2998,4.60061,2470.171,2020-10-27T05:30:45Z
2020-10-27T03:32:53Z,42.805,6.029,13.3003,4.60051,2470.203,2020-10-27T05:33:48Z
2020-10-27T03:35:56Z,42.805,6.029,13.2995,4.60031,2470.133,2020-10-27T05:36:51Z
2020-10-27T03:38:59Z,42.805,6.029,13.2993,4.60031,2470.156,2020-10-27T05:39:54Z
2020-10-27T03:42:02Z,42.805,6.029,13.3011,4.60040,2470.156,2020-10-27T05:42:57Z
2020-10-27T03:45:06Z,42.805,6.029,13.2997,4.60028,2470.156,2020-10-27T05:46:01Z
2020-10-27T03:48:09Z,42.805,6.029,13.2999,4.60024,2470.18,2020-10-27T05:49:04Z
2020-10-27T03:51:12Z,42.805,6.029,13.2999,4.60030,2470.133,2020-10-27T05:52:07Z
2020-10-27T03:54:15Z,42.805,6.029,13.2992,4.60028,2470.156,2020-10-27T05:55:10Z
2020-10-27T03:57:18Z,42.805,6.029,13.2994,4.60047,2470.156,2020-10-27T05:58:13Z
2020-10-27T04:00:21Z,42.805,6.029,13.2993,4.60031,2470.133,2020-10-27T06:01:16Z
2020-10-27T04:03:24Z,42.805,6.029,13.2991,4.60034,2470.133,2020-10-27T06:04:19Z
2020-10-27T04:06:27Z,42.805,6.029,13.2992,4.60035,2470.133,2020-10-27T06:07:22Z
2020-10-27T04:09:31Z,42.805,6.029,13.2991,4.60024,2470.194,2020-10-27T06:10:26Z
2020-10-27T04:12:34Z,42.805,6.029,13.2991,4.60021,2470.171,2020-10-27T06:13:29Z
2020-10-27T04:15:37Z,42.805,6.029,13.2993,4.60006,2470.18,2020-10-27T06:16:32Z
2020-10-27T04:18:40Z,42.805,6.029,13.2992,4.60024,2470.133,2020-10-27T06:19:35Z
2020-10-27T04:21:43Z,42.805,6.029,13.2989,4.60025,2470.194,2020-10-27T06:22:38Z
2020-10-27T04:24:46Z,42.805,6.029,13.2983,4.60018,2470.156,2020-10-27T06:25:41Z
2020-10-27T04:27:49Z,42.805,6.029,13.2995,4.60023,2470.194,2020-10-27T06:28:44Z
2020-10-27T04:30:52Z,42.805,6.029,13.2993,4.60014,2470.133,2020-10-27T06:31:47Z
2020-10-27T04:33:56Z,42.805,6.029,13.2993,4.60015,2470.171,2020-10-27T06:34:51Z
2020-10-27T04:36:59Z,42.805,6.029,13.2993,4.60014,2470.18,2020-10-27T06:37:54Z
2020-10-27T04:40:02Z,42.805,6.029,13.2994,4.60029,2470.171,2020-10-27T06:40:57Z
2020-10-27T04:43:05Z,42.805,6.029,13.2996,4.60021,2470.156,2020-10-27T06:44:00Z
2020-10-27T04:46:08Z,42.805,6.029,13.2994,4.60009,2470.156,2020-10-27T06:47:03Z
2020-10-27T04:49:11Z,42.805,6.029,13.3006,4.60018,2470.171,2020-10-27T06:50:06Z
2020-10-27T04:52:14Z,42.805,6.029,13.2998,4.60007,2470.147,2020-10-27T06:53:09Z
2020-10-27T04:55:17Z,42.805,6.029,13.2993,4.60032,2470.194,2020-10-27T06:56:12Z
2020-10-27T04:58:21Z,42.805,6.029,13.2989,4.60014,2470.194,2020-10-27T06:59:16Z
2020-10-27T05:01:24Z,42.805,6.029,13.2986,4.60013,2470.171,2020-10-27T07:02:19Z
2020-10-27T05:04:27Z,42.805,6.029,13.2984,4.60005,2470.156,2020-10-27T07:05:22Z
2020-10-27T05:07:30Z,42.805,6.029,13.2984,4.60016,2470.171,2020-10-27T07:08:25Z
2020-10-27T05:10:33Z,42.805,6.029,13.2986,4.60015,2470.171,2020-10-27T07:11:28Z
2020-10-27T05:13:36Z,42.805,6.029,13.2991,4.60022,2470.171,2020-10-27T07:14:31Z
2020-10-27T05:16:39Z,42.805,6.029,13.2988,4.60016,2470.133,2020-10-27T07:17:34Z
2020-10-27T05:19:42Z,42.805,6.029,13.2993,4.60006,2470.156,2020-10-27T07:20:37Z
2020-10-27T05:22:45Z,42.805,6.029,13.2986,4.60005,2470.171,2020-10-27T07:23:40Z
2020-10-27T05:25:49Z,42.805,6.029,13.2988,4.60008,2470.194,2020-10-27T07:26:44Z
2020-10-27T05:28:52Z,42.805,6.029,13.2987,4.60012,2470.156,2020-10-27T07:29:47Z
2020-10-27T05:31:55Z,42.805,6.029,13.2993,4.60006,2470.156,2020-10-27T07:32:50Z
2020-10-27T05:34:58Z,42.805,6.029,13.2989,4.60003,2470.133,2020-10-27T07:35:53Z
2020-10-27T05:38:01Z,42.805,6.029,13.2987,4.60006,2470.171,2020-10-27T07:38:56Z
2020-10-27T05:41:04Z,42.805,6.029,13.2992,4.60022,2470.194,2020-10-27T07:41:59Z
2020-10-27T05:44:07Z,42.805,6.029,13.2985,4.60008,2470.133,2020-10-27T07:45:02Z
2020-10-27T05:47:10Z,42.805,6.029,13.2992,4.60026,2470.147,2020-10-27T07:48:05Z
2020-10-27T05:50:14Z,42.805,6.029,13.2990,4.60013,2470.18,2020-10-27T07:51:09Z
2020-10-27T05:53:17Z,42.805,6.029,13.2987,4.60029,2470.156,2020-10-27T07:54:12Z
2020-10-27T05:56:20Z,42.805,6.029,13.2987,4.60005,2470.194,2020-10-27T07:57:15Z
2020-10-27T05:59:23Z,42.805,6.029,13.2989,4.60007,2470.156,2020-10-27T08:00:18Z
2020-10-27T06:02:26Z,42.805,6.029,13.2988,4.60011,2470.147,2020-10-27T08:03:21Z
2020-10-27T06:05:29Z,42.805,6.029,13.2992,4.60000,2470.133,2020-10-27T08:06:24Z
2020-10-27T06:08:32Z,42.805,6.029,13.2980,4.60001,2470.171,2020-10-27T08:09:27Z
2020-10-27T06:11:35Z,42.805,6.029,13.2987,4.60002,2470.156,2020-10-27T08:12:30Z
2020-10-27T06:14:39Z,42.805,6.029,13.2991,4.59999,2470.18,2020-10-27T08:15:34Z
2020-10-27T06:17:42Z,42.805,6.029,13.2991,4.60000,2470.156,2020-10-27T08:18:37Z
2020-10-27T06:20:45Z,42.805,6.029,13.2984,4.59995,2470.171,2020-10-27T08:21:40Z
2020-10-27T06:23:48Z,42.805,6.029,13.2983,4.59995,2470.156,2020-10-27T08:24:43Z
2020-10-27T06:26:51Z,42.805,6.029,13.2983,4.59998,2470.171,2020-10-27T08:27:46Z
2020-10-27T06:29:54Z,42.805,6.029,13.2989,4.59994,2470.147,2020-10-27T08:30:49Z
2020-10-27T06:32:57Z,42.805,6.029,13.2991,4.59994,2470.156,2020-10-27T08:33:52Z
2020-10-27T06:36:00Z,42.805,6.029,13.2983,4.59995,2470.171,2020-10-27T08:36:55Z
2020-10-27T06:39:04Z,42.805,6.029,13.2983,4.60000,2470.156,2020-10-27T08:39:59Z
2020-10-27T06:42:07Z,42.805,6.029,13.2985,4.59995,2470.156,2020-10-27T08:43:02Z
2020-10-27T06:45:10Z,42.805,6.029,13.2992,4.60009,2470.147,2020-10-27T08:46:05Z
2020-10-27T06:48:13Z,42.805,6.029,13.2984,4.60006,2470.133,2020-10-27T08:49:08Z
2020-10-27T06:51:16Z,42.805,6.029,13.2984,4.59993,2470.156,2020-10-27T08:52:11Z
2020-10-27T06:54:19Z,42.805,6.029,13.2986,4.59993,2470.171,2020-10-27T08:55:14Z
2020-10-27T06:57:22Z,42.805,6.029,13.2980,4.59998,2470.147,2020-10-27T08:58:17Z
2020-10-27T07:00:25Z,42.805,6.029,13.2991,4.59999,2470.156,2020-10-27T09:01:20Z
2020-10-27T07:03:28Z,42.805,6.029,13.2986,4.59994,2470.11,2020-10-27T09:04:23Z
2020-10-27T07:06:32Z,42.805,6.029,13.2991,4.59999,2470.11,2020-10-27T09:07:27Z
2020-10-27T07:09:35Z,42.805,6.029,13.2984,4.59995,2470.147,2020-10-27T09:10:30Z
2020-10-27T07:12:38Z,42.805,6.029,13.2980,4.59997,2470.133,2020-10-27T09:13:33Z
2020-10-27T07:15:41Z,42.805,6.029,13.2983,4.59991,2470.147,2020-10-27T09:16:36Z
2020-10-27T07:18:44Z,42.805,6.029,13.2980,4.59991,2470.11,2020-10-27T09:19:39Z
2020-10-27T07:21:47Z,42.805,6.029,13.2984,4.59991,2470.133,2020-10-27T09:22:42Z
2020-10-27T07:24:50Z,42.805,6.029,13.2985,4.59995,2470.133,2020-10-27T09:25:45Z
2020-10-27T07:27:54Z,42.805,6.029,13.2984,4.59999,2470.156,2020-10-27T09:28:49Z
2020-10-27T07:30:57Z,42.805,6.029,13.2986,4.59995,2470.124,2020-10-27T09:31:52Z
2020-10-27T07:34:00Z,42.805,6.029,13.2982,4.59994,2470.133,2020-10-27T09:34:55Z
2020-10-27T07:37:03Z,42.805,6.029,13.2976,4.59991,2470.124,2020-10-27T09:37:58Z
2020-10-27T07:40:06Z,42.805,6.029,13.2983,4.59994,2470.11,2020-10-27T09:41:01Z
2020-10-27T07:43:09Z,42.805,6.029,13.2981,4.59992,2470.133,2020-10-27T09:44:04Z
2020-10-27T07:46:12Z,42.805,6.029,13.2982,4.59991,2470.124,2020-10-27T09:47:07Z
2020-10-27T07:49:15Z,42.805,6.029,13.2977,4.59990,2470.147,2020-10-27T09:50:10Z
2020-10-27T07:52:18Z,42.805,6.029,13.2982,4.59991,2470.124,2020-10-27T09:53:13Z
2020-10-27T07:55:22Z,42.805,6.029,13.2979,4.59996,2470.11,2020-10-27T09:56:17Z
2020-10-27T07:58:25Z,42.805,6.029,13.2980,4.59996,2470.124,2020-10-27T09:59:20Z
2020-10-27T08:01:28Z,42.805,6.029,13.2983,4.59996,2470.077,2020-10-27T10:02:23Z
2020-10-27T08:04:31Z,42.805,6.029,13.2982,4.59989,2470.11,2020-10-27T10:05:26Z
2020-10-27T08:07:34Z,42.805,6.029,13.2985,4.59990,2470.11,2020-10-27T10:08:29Z
2020-10-27T08:10:37Z,42.805,6.029,13.2982,4.59998,2470.11,2020-10-27T10:11:32Z
2020-10-27T08:13:40Z,42.805,6.029,13.2984,4.59993,2470.11,2020-10-27T10:14:35Z
2020-10-27T08:16:43Z,42.805,6.029,13.2989,4.59993,2470.11,2020-10-27T10:17:38Z
2020-10-27T08:19:47Z,42.805,6.029,13.2983,4.59999,2470.124,2020-10-27T10:20:42Z
2020-10-27T08:22:50Z,42.805,6.029,13.2982,4.59995,2470.087,2020-10-27T10:23:45Z
2020-10-27T08:25:53Z,42.805,6.029,13.2988,4.59997,2470.1,2020-10-27T10:26:48Z
2020-10-27T08:28:56Z,42.805,6.029,13.2983,4.59995,2470.1,2020-10-27T10:29:51Z
2020-10-27T08:31:59Z,42.805,6.029,13.2990,4.59992,2470.087,2020-10-27T10:32:54Z
2020-10-27T08:35:02Z,42.805,6.029,13.2980,4.59995,2470.087,2020-10-27T10:35:57Z
2020-10-27T08:38:05Z,42.805,6.029,13.2983,4.59999,2470.1,2020-10-27T10:39:00Z
2020-10-27T08:41:08Z,42.805,6.029,13.2986,4.60001,2470.077,2020-10-27T10:42:03Z
2020-10-27T08:44:12Z,42.805,6.029,13.2978,4.59991,2470.11,2020-10-27T10:45:07Z
2020-10-27T08:47:15Z,42.805,6.029,13.2985,4.59992,2470.087,2020-10-27T10:48:10Z
2020-10-27T08:50:18Z,42.805,6.029,13.2981,4.59988,2470.063,2020-10-27T10:51:13Z
2020-10-27T09:03:09Z,42.805,6.029,13.2980,4.59989,2470.077,2020-10-27T11:04:04Z
2020-10-27T09:06:12Z,42.805,6.029,13.2983,4.59989,2470.1,2020-10-27T11:07:07Z
2020-10-27T09:09:15Z,42.805,6.029,13.2985,4.59995,2470.063,2020-10-27T11:10:10Z
2020-10-27T09:12:18Z,42.805,6.029,13.2986,4.59996,2470.073,2020-10-27T11:13:13Z
2020-10-27T09:15:21Z,42.805,6.029,13.2979,4.59986,2470.087,2020-10-27T11:16:16Z
2020-10-27T09:18:24Z,42.805,6.029,13.2983,4.59999,2470.063,2020-10-27T11:19:19Z
2020-10-27T09:21:27Z,42.805,6.029,13.2982,4.60003,2470.063,2020-10-27T11:22:22Z
2020-10-27T09:24:30Z,42.805,6.029,13.2983,4.59991,2470.063,2020-10-27T11:25:25Z
2020-10-27T09:27:34Z,42.805,6.029,13.2982,4.59994,2470.077,2020-10-27T11:28:29Z
2020-10-27T09:30:37Z,42.805,6.029,13.2981,4.59988,2470.124,2020-10-27T11:31:32Z
2020-10-27T09:33:40Z,42.805,6.029,13.2981,4.59996,2470.063,2020-10-27T11:34:35Z
2020-10-27T09:48:09Z,42.805,6.029,13.2981,4.59987,2470.063,2020-10-27T11:49:04Z
2020-10-27T09:51:12Z,42.805,6.029,13.2989,4.59994,2470.063,2020-10-27T11:52:07Z
2020-10-27T09:54:15Z,42.805,6.029,13.2979,4.59988,2470.1,2020-10-27T11:55:10Z
2020-10-27T09:57:18Z,42.805,6.029,13.2984,4.60003,2470.053,2020-10-27T11:58:13Z
2020-10-27T10:00:21Z,42.805,6.029,13.2978,4.59991,2470.1,2020-10-27T12:01:16Z
2020-10-27T10:03:24Z,42.805,6.029,13.2981,4.59991,2470.1,2020-10-27T12:04:19Z
2020-10-27T10:06:27Z,42.805,6.029,13.2976,4.59988,2470.1,2020-10-27T12:07:22Z
2020-10-27T10:09:30Z,42.805,6.029,13.2979,4.59991,2470.077,2020-10-27T12:10:25Z
2020-10-27T10:12:34Z,42.805,6.029,13.2978,4.59987,2470.063,2020-10-27T12:13:29Z
2020-10-27T10:15:37Z,42.805,6.029,13.2980,4.59989,2470.087,2020-10-27T12:16:32Z
2020-10-27T10:18:40Z,42.805,6.029,13.2986,4.59996,2470.087,2020-10-27T12:19:35Z
2020-10-27T10:21:43Z,42.805,6.029,13.2980,4.59989,2470.04,2020-10-27T12:22:38Z
2020-10-27T10:24:46Z,42.805,6.029,13.2981,4.59994,2470.1,2020-10-27T12:25:41Z
2020-10-27T10:27:49Z,42.805,6.029,13.2977,4.59987,2470.087,2020-10-27T12:28:44Z
2020-10-27T10:30:52Z,42.805,6.029,13.2979,4.59986,2470.04,2020-10-27T12:31:47Z
2020-10-27T10:33:55Z,42.805,6.029,13.2982,4.59991,2470.077,2020-10-27T12:34:50Z
2020-10-27T10:36:59Z,42.805,6.029,13.2985,4.59991,2470.1,2020-10-27T12:37:54Z
2020-10-27T10:40:02Z,42.805,6.029,13.2983,4.59989,2470.087,2020-10-27T12:40:57Z
2020-10-27T10:43:05Z,42.805,6.029,13.2982,4.59992,2470.077,2020-10-27T12:44:00Z
2020-10-27T10:46:08Z,42.805,6.029,13.2983,4.59990,2470.053,2020-10-27T12:47:03Z
2020-10-27T10:49:11Z,42.805,6.029,13.2982,4.59989,2470.077,2020-10-27T12:50:06Z
2020-10-27T10:52:14Z,42.805,6.029,13.2980,4.59986,2470.053,2020-10-27T12:53:09Z
2020-10-27T10:55:17Z,42.805,6.029,13.2978,4.59996,2470.063,2020-10-27T12:56:12Z
2020-10-27T10:58:20Z,42.805,6.029,13.2991,4.59988,2470.063,2020-10-27T12:59:15Z
2020-10-27T11:01:24Z,42.805,6.029,13.2980,4.59988,2470.04,2020-10-27T13:02:19Z
2020-10-27T11:04:27Z,42.805,6.029,13.2989,4.60000,2470.03,2020-10-27T13:05:22Z
2020-10-27T11:07:30Z,42.805,6.029,13.2979,4.59988,2470.04,2020-10-27T13:08:25Z
2020-10-27T11:10:33Z,42.805,6.029,13.2982,4.59987,2470.063,2020-10-27T13:11:28Z
2020-10-27T11:13:36Z,42.805,6.029,13.2982,4.59996,2470.063,2020-10-27T13:14:31Z
2020-10-27T11:16:39Z,42.805,6.029,13.2987,4.60002,2470.077,2020-10-27T13:17:34Z
2020-10-27T11:19:42Z,42.805,6.029,13.2983,4.60000,2470.03,2020-10-27T13:20:37Z
2020-10-27T11:22:45Z,42.805,6.029,13.2979,4.59990,2470.04,2020-10-27T13:23:40Z
2020-10-27T11:25:49Z,42.805,6.029,13.2992,4.60003,2470.04,2020-10-27T13:26:44Z
2020-10-27T11:28:52Z,42.805,6.029,13.2986,4.60003,2470.063,2020-10-27T13:29:47Z
2020-10-27T11:31:55Z,42.805,6.029,13.2984,4.59999,2470.04,2020-10-27T13:32:50Z
2020-10-27T11:34:58Z,42.805,6.029,13.2987,4.60000,2470.063,2020-10-27T13:35:53Z
2020-10-27T11:38:01Z,42.805,6.029,13.2992,4.60001,2470.063,2020-10-27T13:38:56Z
2020-10-27T11:41:04Z,42.805,6.029,13.2982,4.59994,2470.063,2020-10-27T13:41:59Z
2020-10-27T11:44:07Z,42.805,6.029,13.2981,4.59988,2470.063,2020-10-27T13:45:02Z
2020-10-27T11:47:10Z,42.805,6.029,13.2988,4.59993,2470.077,2020-10-27T13:48:05Z
2020-10-27T11:50:14Z,42.805,6.029,13.2983,4.59988,2470.053,2020-10-27T13:51:09Z
2020-10-27T11:53:17Z,42.805,6.029,13.2980,4.59988,2470.087,2020-10-27T13:54:12Z
2020-10-27T11:56:20Z,42.805,6.029,13.2976,4.59988,2470.053,2020-10-27T13:57:15Z
2020-10-27T11:59:23Z,42.805,6.029,13.2981,4.59991,2470.077,2020-10-27T14:00:18Z
2020-10-27T12:02:26Z,42.805,6.029,13.2979,4.59999,2470.063,2020-10-27T14:03:21Z
2020-10-27T12:05:29Z,42.805,6.029,13.2977,4.59987,2470.063,2020-10-27T14:06:24Z
2020-10-27T12:08:32Z,42.805,6.029,13.2987,4.59989,2470.049,2020-10-27T14:09:27Z
2020-10-27T12:11:35Z,42.805,6.029,13.2983,4.59991,2470.077,2020-10-27T14:12:30Z
2020-10-27T12:14:39Z,42.805,6.029,13.2990,4.60002,2470.053,2020-10-27T14:15:34Z
2020-10-27T12:17:42Z,42.805,6.029,13.2983,4.59996,2470.077,2020-10-27T14:18:37Z
2020-10-27T12:20:45Z,42.805,6.029,13.2980,4.59991,2470.1,2020-10-27T14:21:40Z
2020-10-27T12:23:48Z,42.805,6.029,13.2982,4.59989,2470.053,2020-10-27T14:24:43Z
2020-10-27T12:26:51Z,42.805,6.029,13.2986,4.59997,2470.087,2020-10-27T14:27:46Z
2020-10-27T12:29:54Z,42.805,6.029,13.2979,4.59989,2470.077,2020-10-27T14:30:49Z
2020-10-27T12:32:57Z,42.805,6.029,13.2983,4.59990,2470.1,2020-10-27T14:33:52Z
2020-10-27T12:36:00Z,42.805,6.029,13.2979,4.59996,2470.077,2020-10-27T14:36:55Z
2020-10-27T12:39:04Z,42.805,6.029,13.2982,4.59986,2470.077,2020-10-27T14:39:59Z
2020-10-27T12:42:07Z,42.805,6.029,13.2983,4.59989,2470.077,2020-10-27T14:43:02Z
2020-10-27T12:45:10Z,42.805,6.029,13.2984,4.59986,2470.077,2020-10-27T14:46:05Z
2020-10-27T12:48:13Z,42.805,6.029,13.2988,4.59996,2470.063,2020-10-27T14:49:08Z
2020-10-27T12:51:16Z,42.805,6.029,13.2982,4.59989,2470.087,2020-10-27T14:52:11Z
2020-10-27T12:54:19Z,42.805,6.029,13.2982,4.59993,2470.087,2020-10-27T14:55:14Z
2020-10-27T12:57:22Z,42.805,6.029,13.2984,4.60009,2470.087,2020-10-27T14:58:17Z
2020-10-27T13:00:26Z,42.805,6.029,13.2984,4.60013,2470.063,2020-10-27T15:01:21Z
2020-10-27T13:03:29Z,42.805,6.029,13.2985,4.59999,2470.1,2020-10-27T15:04:24Z
2020-10-27T13:06:32Z,42.805,6.029,13.2976,4.59988,2470.1,2020-10-27T15:07:27Z
2020-10-27T13:09:35Z,42.805,6.029,13.2982,4.59992,2470.11,2020-10-27T15:10:30Z
2020-10-27T13:12:38Z,42.805,6.029,13.2990,4.60003,2470.11,2020-10-27T15:13:33Z
2020-10-27T13:15:41Z,42.805,6.029,13.2988,4.59999,2470.1,2020-10-27T15:16:36Z
2020-10-27T13:18:44Z,42.805,6.029,13.2992,4.60008,2470.124,2020-10-27T15:19:39Z
2020-10-27T13:21:47Z,42.805,6.029,13.2986,4.59999,2470.087,2020-10-27T15:22:42Z
2020-10-27T13:24:51Z,42.805,6.029,13.2986,4.59995,2470.1,2020-10-27T15:25:46Z
2020-10-27T13:27:54Z,42.805,6.029,13.2981,4.59986,2470.087,2020-10-27T15:28:49Z
2020-10-27T13:30:57Z,42.805,6.029,13.2986,4.59994,2470.087,2020-10-27T15:31:52Z
2020-10-27T13:34:00Z,42.805,6.029,13.2985,4.59990,2470.171,2020-10-27T15:34:55Z
2020-10-27T13:37:03Z,42.805,6.029,13.2981,4.60007,2470.11,2020-10-27T15:37:58Z
2020-10-27T13:40:06Z,42.805,6.029,13.2993,4.60010,2470.11,2020-10-27T15:41:01Z
2020-10-27T13:43:09Z,42.805,6.029,13.2991,4.60004,2470.11,2020-10-27T15:44:04Z
2020-10-27T13:46:12Z,42.805,6.029,13.2978,4.59986,2470.124,2020-10-27T15:47:07Z
2020-10-27T13:49:16Z,42.805,6.029,13.2978,4.59991,2470.11,2020-10-27T15:50:11Z
2020-10-27T13:52:19Z,42.805,6.029,13.2980,4.59991,2470.147,2020-10-27T15:53:14Z
2020-10-27T13:55:22Z,42.805,6.029,13.2985,4.59999,2470.147,2020-10-27T15:56:17Z
2020-10-27T13:58:25Z,42.805,6.029,13.2985,4.60000,2470.11,2020-10-27T15:59:20Z
2020-10-27T14:01:28Z,42.805,6.029,13.2987,4.59997,2470.11,2020-10-27T16:02:23Z
2020-10-27T14:04:31Z,42.805,6.029,13.2982,4.60009,2470.156,2020-10-27T16:05:26Z
2020-10-27T14:07:34Z,42.805,6.029,13.2981,4.59989,2470.096,2020-10-27T16:08:29Z
2020-10-27T14:10:37Z,42.805,6.029,13.2980,4.59991,2470.147,2020-10-27T16:11:32Z
2020-10-27T14:13:41Z,42.805,6.029,13.2993,4.59995,2470.147,2020-10-27T16:14:36Z
2020-10-27T14:16:44Z,42.805,6.029,13.2995,4.60005,2470.18,2020-10-27T16:17:39Z
2020-10-27T14:19:47Z,42.805,6.029,13.2995,4.60018,2470.133,2020-10-27T16:20:42Z
2020-10-27T14:22:50Z,42.805,6.029,13.2979,4.59992,2470.147,2020-10-27T16:23:45Z
2020-10-27T14:25:53Z,42.805,6.029,13.2990,4.60003,2470.171,2020-10-27T16:26:48Z
2020-10-27T14:28:56Z,42.805,6.029,13.3004,4.60007,2470.147,2020-10-27T16:29:51Z
2020-10-27T14:31:59Z,42.805,6.029,13.2987,4.60013,2470.184,2020-10-27T16:32:54Z
2020-10-27T14:35:02Z,42.805,6.029,13.2996,4.60019,2470.147,2020-10-27T16:35:57Z
2020-10-27T14:38:06Z,42.805,6.029,13.2993,4.60019,2470.11,2020-10-27T16:39:01Z
2020-10-27T14:41:09Z,42.805,6.029,13.2982,4.60016,2470.156,2020-10-27T16:42:04Z
2020-10-27T14:44:12Z,42.805,6.029,13.2983,4.60003,2470.171,2020-10-27T16:45:07Z
2020-10-27T14:47:15Z,42.805,6.029,13.2993,4.60001,2470.18,2020-10-27T16:48:10Z
2020-10-27T14:50:18Z,42.805,6.029,13.2991,4.60014,2470.171,2020-10-27T16:51:13Z
2020-10-27T14:53:21Z,42.805,6.029,13.2983,4.60014,2470.171,2020-10-27T16:54:16Z
2020-10-27T14:56:24Z,42.805,6.029,13.2988,4.60019,2470.156,2020-10-27T16:57:19Z
2020-10-27T14:59:27Z,42.805,6.029,13.2976,4.59991,2470.171,2020-10-27T17:00:22Z
2020-10-27T15:02:31Z,42.805,6.029,13.2981,4.59986,2470.171,2020-10-27T17:03:26Z
2020-10-27T15:05:34Z,42.805,6.029,13.2989,4.60010,2470.217,2020-10-27T17:06:29Z
2020-10-27T15:08:37Z,42.805,6.029,13.2989,4.60009,2470.203,2020-10-27T17:09:32Z
2020-10-27T15:11:40Z,42.805,6.029,13.2993,4.60016,2470.171,2020-10-27T17:12:35Z
2020-10-27T15:14:43Z,42.805,6.029,13.2998,4.60012,2470.18,2020-10-27T17:15:38Z
2020-10-27T15:17:46Z,42.805,6.029,13.2991,4.60001,2470.18,2020-10-27T17:18:41Z
2020-10-27T15:20:49Z,42.805,6.029,13.3008,4.60014,2470.194,2020-10-27T17:21:44Z
2020-10-27T15:23:52Z,42.805,6.029,13.2995,4.60012,2470.18,2020-10-27T17:24:47Z